Time,TemperatureF,DewpointF,PressureIn,WindDirection,WindDirectionDegrees,WindSpeedMPH,WindSpeedGustMPH,Humidity,HourlyPrecipIn,Conditions,Clouds,dailyrainin,SoftwareType,DateUTC
2013-11-19 00:04:00,28.0,18.0,30.20,North,0,0.0,0.0,66,0.00,,,0.00,Meteo,2013-11-19 06:04:00,
2013-11-19 00:09:00,28.0,18.0,30.20,WSW,243,1.0,3.0,66,0.00,,,0.00,Meteo,2013-11-19 06:09:00,
2013-11-19 00:14:00,28.0,18.0,30.20,WSW,257,1.0,2.0,67,0.00,,,0.00,Meteo,2013-11-19 06:14:00,
2013-11-19 00:19:00,28.0,18.0,30.21,SW,229,0.0,1.0,67,0.00,,,0.00,Meteo,2013-11-19 06:19:00,
2013-11-19 00:25:00,28.0,18.0,30.21,North,0,0.0,0.0,67,0.00,,,0.00,Meteo,2013-11-19 06:25:00,
2013-11-19 00:30:00,28.0,18.0,30.21,SSW,201,0.0,1.0,67,0.00,,,0.00,Meteo,2013-11-19 06:30:00,
2013-11-19 00:35:00,28.0,18.0,30.21,SSW,201,0.0,1.0,67,0.00,,,0.00,Meteo,2013-11-19 06:35:00,
2013-11-19 00:40:00,28.0,18.0,30.21,SSW,201,1.0,2.0,67,0.00,,,0.00,Meteo,2013-11-19 06:40:00,
2013-11-19 00:45:00,28.0,19.0,30.21,SSW,209,1.0,3.0,68,0.00,,,0.00,Meteo,2013-11-19 06:45:00,
2013-11-19 00:50:00,28.0,18.0,30.21,North,0,0.0,0.0,67,0.00,,,0.00,Meteo,2013-11-19 06:50:00,
2013-11-19 00:55:00,28.0,19.0,30.21,SW,214,0.0,1.0,68,0.00,,,0.00,Meteo,2013-11-19 06:55:00,
2013-11-19 01:00:00,28.0,19.0,30.21,SW,220,2.0,3.0,68,0.00,,,0.00,Meteo,2013-11-19 07:00:00,
2013-11-19 01:05:00,28.0,19.0,30.21,SW,214,2.0,2.0,68,0.00,,,0.00,Meteo,2013-11-19 07:05:00,
2013-11-19 01:10:00,28.0,19.0,30.21,SSW,205,1.0,2.0,68,0.00,,,0.00,Meteo,2013-11-19 07:10:00,
2013-11-19 01:15:00,28.0,18.0,30.21,SSW,205,0.0,1.0,67,0.00,,,0.00,Meteo,2013-11-19 07:15:00,
2013-11-19 01:20:00,28.0,19.0,30.21,SSW,206,1.0,2.0,68,0.00,,,0.00,Meteo,2013-11-19 07:20:00,
2013-11-19 01:25:00,28.0,18.0,30.21,SSW,208,2.0,3.0,67,0.00,,,0.00,Meteo,2013-11-19 07:25:00,
2013-11-19 01:30:00,28.0,18.0,30.21,SW,225,0.0,2.0,67,0.00,,,0.00,Meteo,2013-11-19 07:30:00,
2013-11-19 01:35:00,28.0,18.0,30.21,North,0,0.0,0.0,67,0.00,,,0.00,Meteo,2013-11-19 07:35:00,
2013-11-19 01:40:00,27.0,18.0,30.22,North,0,0.0,0.0,68,0.00,,,0.00,Meteo,2013-11-19 07:40:00,
2013-11-19 01:45:00,27.0,18.0,30.22,SW,225,1.0,2.0,68,0.00,,,0.00,Meteo,2013-11-19 07:45:00,
2013-11-19 01:50:00,27.0,18.0,30.22,North,0,0.0,0.0,68,0.00,,,0.00,Meteo,2013-11-19 07:50:00,
2013-11-19 01:55:00,27.0,18.0,30.22,SW,225,1.0,2.0,69,0.00,,,0.00,Meteo,2013-11-19 07:55:00,
2013-11-19 02:00:00,27.0,18.0,30.22,SW,223,0.0,1.0,69,0.00,,,0.00,Meteo,2013-11-19 08:00:00,
2013-11-19 02:05:00,27.0,18.0,30.22,North,0,0.0,0.0,69,0.00,,,0.00,Meteo,2013-11-19 08:05:00,
2013-11-19 02:10:00,27.0,18.0,30.22,SW,223,0.0,1.0,69,0.00,,,0.00,Meteo,2013-11-19 08:10:00,
2013-11-19 02:15:00,27.0,19.0,30.22,North,0,0.0,0.0,70,0.00,,,0.00,Meteo,2013-11-19 08:15:00,
2013-11-19 02:20:00,27.0,19.0,30.22,North,0,0.0,0.0,71,0.00,,,0.00,Meteo,2013-11-19 08:20:00,
2013-11-19 02:25:00,27.0,19.0,30.22,North,0,0.0,0.0,71,0.00,,,0.00,Meteo,2013-11-19 08:25:00,
2013-11-19 02:30:00,27.0,19.0,30.22,North,0,0.0,0.0,70,0.00,,,0.00,Meteo,2013-11-19 08:30:00,
2013-11-19 02:35:00,27.0,19.0,30.23,North,0,0.0,0.0,70,0.00,,,0.00,Meteo,2013-11-19 08:35:00,
2013-11-19 02:40:00,27.0,19.0,30.23,North,0,0.0,0.0,71,0.00,,,0.00,Meteo,2013-11-19 08:40:00,
2013-11-19 02:45:00,27.0,19.0,30.23,North,0,0.0,0.0,71,0.00,,,0.00,Meteo,2013-11-19 08:45:00,
2013-11-19 02:50:00,27.0,19.0,30.23,North,0,0.0,0.0,71,0.00,,,0.00,Meteo,2013-11-19 08:50:00,
2013-11-19 02:55:00,27.0,19.0,30.23,SW,216,1.0,3.0,72,0.00,,,0.00,Meteo,2013-11-19 08:55:00,
2013-11-19 03:00:00,27.0,19.0,30.23,SW,226,0.0,1.0,71,0.00,,,0.00,Meteo,2013-11-19 09:00:00,
2013-11-19 03:05:00,27.0,19.0,30.24,SW,226,1.0,2.0,71,0.00,,,0.00,Meteo,2013-11-19 09:05:00,
2013-11-19 03:10:00,27.0,19.0,30.24,SW,226,0.0,1.0,70,0.00,,,0.00,Meteo,2013-11-19 09:10:00,
2013-11-19 03:15:00,27.0,19.0,30.24,SW,226,1.0,2.0,71,0.00,,,0.00,Meteo,2013-11-19 09:15:00,
2013-11-19 03:20:00,27.0,19.0,30.24,SW,226,0.0,2.0,71,0.00,,,0.00,Meteo,2013-11-19 09:20:00,
2013-11-19 03:25:00,27.0,19.0,30.24,North,0,0.0,0.0,71,0.00,,,0.00,Meteo,2013-11-19 09:25:00,
2013-11-19 03:31:00,27.0,19.0,30.24,North,0,0.0,0.0,71,0.00,,,0.00,Meteo,2013-11-19 09:31:00,
2013-11-19 03:36:00,27.0,19.0,30.24,North,0,0.0,0.0,70,0.00,,,0.00,Meteo,2013-11-19 09:36:00,
2013-11-19 03:41:00,27.0,19.0,30.24,North,0,0.0,0.0,71,0.00,,,0.00,Meteo,2013-11-19 09:41:00,
2013-11-19 03:46:00,27.0,19.0,30.24,North,0,0.0,0.0,70,0.00,,,0.00,Meteo,2013-11-19 09:46:00,
2013-11-19 03:51:00,26.0,18.0,30.24,North,0,0.0,0.0,71,0.00,,,0.00,Meteo,2013-11-19 09:51:00,
2013-11-19 03:56:00,26.0,18.0,30.25,North,0,0.0,0.0,72,0.00,,,0.00,Meteo,2013-11-19 09:56:00,
2013-11-19 04:01:00,26.0,18.0,30.25,North,0,0.0,0.0,72,0.00,,,0.00,Meteo,2013-11-19 10:01:00,
2013-11-19 04:07:00,26.0,19.0,30.25,North,0,0.0,0.0,73,0.00,,,0.00,Meteo,2013-11-19 10:07:00,
2013-11-19 04:12:00,26.0,19.0,30.24,North,0,0.0,0.0,73,0.00,,,0.00,Meteo,2013-11-19 10:12:00,
2013-11-19 04:17:00,26.0,19.0,30.24,North,0,0.0,0.0,73,0.00,,,0.00,Meteo,2013-11-19 10:17:00,
2013-11-19 04:22:00,26.0,19.0,30.24,North,0,0.0,0.0,73,0.00,,,0.00,Meteo,2013-11-19 10:22:00,
2013-11-19 04:27:00,26.0,19.0,30.24,North,0,0.0,0.0,73,0.00,,,0.00,Meteo,2013-11-19 10:27:00,
2013-11-19 04:32:00,26.0,19.0,30.24,North,0,0.0,0.0,73,0.00,,,0.00,Meteo,2013-11-19 10:32:00,
2013-11-19 04:37:00,25.0,18.0,30.24,North,0,0.0,0.0,73,0.00,,,0.00,Meteo,2013-11-19 10:37:00,
2013-11-19 04:42:00,25.0,18.0,30.24,North,0,0.0,0.0,73,0.00,,,0.00,Meteo,2013-11-19 10:42:00,
2013-11-19 04:47:00,25.0,18.0,30.24,North,0,0.0,0.0,73,0.00,,,0.00,Meteo,2013-11-19 10:47:00,
2013-11-19 04:52:00,25.0,18.0,30.24,North,0,0.0,0.0,74,0.00,,,0.00,Meteo,2013-11-19 10:52:00,
2013-11-19 04:57:00,24.0,17.0,30.24,North,0,0.0,0.0,74,0.00,,,0.00,Meteo,2013-11-19 10:57:00,
2013-11-19 05:02:00,24.0,17.0,30.24,North,0,0.0,0.0,75,0.00,,,0.00,Meteo,2013-11-19 11:02:00,
2013-11-19 05:07:00,24.0,17.0,30.24,North,0,0.0,0.0,75,0.00,,,0.00,Meteo,2013-11-19 11:07:00,
2013-11-19 05:12:00,24.0,17.0,30.24,North,0,0.0,0.0,75,0.00,,,0.00,Meteo,2013-11-19 11:12:00,
2013-11-19 05:17:00,24.0,18.0,30.24,North,0,0.0,0.0,76,0.00,,,0.00,Meteo,2013-11-19 11:17:00,
2013-11-19 05:22:00,24.0,18.0,30.24,North,0,0.0,0.0,76,0.00,,,0.00,Meteo,2013-11-19 11:22:00,
2013-11-19 05:27:00,24.0,18.0,30.24,North,0,0.0,0.0,76,0.00,,,0.00,Meteo,2013-11-19 11:27:00,
2013-11-19 05:32:00,23.0,17.0,30.24,North,0,0.0,0.0,76,0.00,,,0.00,Meteo,2013-11-19 11:32:00,
2013-11-19 05:37:00,23.0,17.0,30.24,North,0,0.0,0.0,77,0.00,,,0.00,Meteo,2013-11-19 11:37:00,
2013-11-19 05:42:00,23.0,17.0,30.25,North,0,0.0,0.0,77,0.00,,,0.00,Meteo,2013-11-19 11:42:00,
2013-11-19 05:47:00,23.0,17.0,30.25,North,0,0.0,0.0,77,0.00,,,0.00,Meteo,2013-11-19 11:47:00,
2013-11-19 05:52:00,23.0,17.0,30.25,North,0,0.0,0.0,77,0.00,,,0.00,Meteo,2013-11-19 11:52:00,
2013-11-19 05:57:00,23.0,17.0,30.24,North,0,0.0,0.0,78,0.00,,,0.00,Meteo,2013-11-19 11:57:00,
2013-11-19 06:02:00,22.0,16.0,30.25,North,0,0.0,0.0,78,0.00,,,0.00,Meteo,2013-11-19 12:02:00,
2013-11-19 06:07:00,22.0,16.0,30.25,North,0,0.0,0.0,78,0.00,,,0.00,Meteo,2013-11-19 12:07:00,
2013-11-19 06:12:00,22.0,16.0,30.24,North,0,0.0,0.0,78,0.00,,,0.00,Meteo,2013-11-19 12:12:00,
2013-11-19 06:17:00,22.0,16.0,30.24,North,0,0.0,0.0,79,0.00,,,0.00,Meteo,2013-11-19 12:17:00,
2013-11-19 06:22:00,22.0,16.0,30.25,North,0,0.0,0.0,79,0.00,,,0.00,Meteo,2013-11-19 12:22:00,
2013-11-19 06:27:00,22.0,16.0,30.24,North,0,0.0,0.0,79,0.00,,,0.00,Meteo,2013-11-19 12:27:00,
2013-11-19 06:32:00,22.0,16.0,30.24,North,0,0.0,0.0,79,0.00,,,0.00,Meteo,2013-11-19 12:32:00,
2013-11-19 06:37:00,22.0,17.0,30.24,North,0,0.0,0.0,80,0.00,,,0.00,Meteo,2013-11-19 12:37:00,
2013-11-19 06:42:00,22.0,17.0,30.24,North,0,0.0,0.0,80,0.00,,,0.00,Meteo,2013-11-19 12:42:00,
2013-11-19 06:47:00,22.0,17.0,30.24,North,0,0.0,0.0,80,0.00,,,0.00,Meteo,2013-11-19 12:47:00,
2013-11-19 06:52:00,22.0,17.0,30.24,North,0,0.0,0.0,80,0.00,,,0.00,Meteo,2013-11-19 12:52:00,
2013-11-19 06:57:00,21.0,16.0,30.24,North,0,0.0,0.0,80,0.00,,,0.00,Meteo,2013-11-19 12:57:00,
2013-11-19 07:02:00,21.0,16.0,30.24,North,0,0.0,0.0,80,0.00,,,0.00,Meteo,2013-11-19 13:02:00,
2013-11-19 07:07:00,21.0,16.0,30.24,North,0,0.0,0.0,80,0.00,,,0.00,Meteo,2013-11-19 13:07:00,
2013-11-19 07:12:00,21.0,16.0,30.24,North,0,0.0,0.0,81,0.00,,,0.00,Meteo,2013-11-19 13:12:00,
2013-11-19 07:17:00,21.0,16.0,30.24,North,0,0.0,0.0,81,0.00,,,0.00,Meteo,2013-11-19 13:17:00,
2013-11-19 07:22:00,21.0,16.0,30.23,North,0,0.0,0.0,81,0.00,,,0.00,Meteo,2013-11-19 13:22:00,
2013-11-19 07:27:00,21.0,16.0,30.23,North,0,0.0,0.0,81,0.00,,,0.00,Meteo,2013-11-19 13:27:00,
2013-11-19 07:32:00,21.0,16.0,30.23,SW,218,0.0,1.0,81,0.00,,,0.00,Meteo,2013-11-19 13:32:00,
2013-11-19 07:37:00,21.0,16.0,30.24,North,0,0.0,0.0,82,0.00,,,0.00,Meteo,2013-11-19 13:37:00,
2013-11-19 07:42:00,21.0,16.0,30.23,North,0,0.0,0.0,82,0.00,,,0.00,Meteo,2013-11-19 13:42:00,
2013-11-19 07:47:00,21.0,17.0,30.23,North,0,0.0,0.0,83,0.00,,,0.00,Meteo,2013-11-19 13:47:00,
2013-11-19 07:52:00,21.0,17.0,30.23,North,0,0.0,0.0,83,0.00,,,0.00,Meteo,2013-11-19 13:52:00,
2013-11-19 07:57:00,21.0,17.0,30.23,North,0,0.0,0.0,83,0.00,,,0.00,Meteo,2013-11-19 13:57:00,
2013-11-19 08:02:00,22.0,18.0,30.23,North,0,0.0,0.0,83,0.00,,,0.00,Meteo,2013-11-19 14:02:00,
2013-11-19 08:07:00,22.0,18.0,30.23,SSW,209,0.0,2.0,83,0.00,,,0.00,Meteo,2013-11-19 14:07:00,
2013-11-19 08:12:00,22.0,18.0,30.23,SE,137,1.0,2.0,83,0.00,,,0.00,Meteo,2013-11-19 14:12:00,
2013-11-19 08:17:00,23.0,18.0,30.23,North,0,0.0,0.0,82,0.00,,,0.00,Meteo,2013-11-19 14:17:00,
2013-11-19 08:22:00,23.0,18.0,30.23,SSE,158,0.0,1.0,81,0.00,,,0.00,Meteo,2013-11-19 14:22:00,
2013-11-19 08:27:00,23.0,18.0,30.23,SSE,158,0.0,1.0,81,0.00,,,0.00,Meteo,2013-11-19 14:27:00,
2013-11-19 08:29:00,23.0,18.0,30.23,North,0,0.0,0.0,81,0.00,,,0.00,Meteo,2013-11-19 14:29:00,
2013-11-19 08:34:00,24.0,19.0,30.23,North,0,0.0,0.0,81,0.00,,,0.00,Meteo,2013-11-19 14:34:00,
2013-11-19 08:39:00,24.0,19.0,30.23,SE,143,1.0,3.0,80,0.00,,,0.00,Meteo,2013-11-19 14:39:00,
2013-11-19 08:44:00,24.0,19.0,30.23,ESE,107,0.0,1.0,80,0.00,,,0.00,Meteo,2013-11-19 14:44:00,
2013-11-19 08:50:00,24.0,18.0,30.23,ESE,109,0.0,1.0,79,0.00,,,0.00,Meteo,2013-11-19 14:50:00,
2013-11-19 08:55:00,25.0,19.0,30.23,East,93,2.0,3.0,79,0.00,,,0.00,Meteo,2013-11-19 14:55:00,
2013-11-19 09:00:00,25.0,19.0,30.23,ESE,120,0.0,1.0,78,0.00,,,0.00,Meteo,2013-11-19 15:00:00,
2013-11-19 09:05:00,25.0,19.0,30.23,ESE,107,0.0,1.0,77,0.00,,,0.00,Meteo,2013-11-19 15:05:00,
2013-11-19 09:10:00,26.0,20.0,30.23,SSE,147,1.0,3.0,77,0.00,,,0.00,Meteo,2013-11-19 15:10:00,
2013-11-19 09:15:00,26.0,19.0,30.23,SE,132,1.0,3.0,76,0.00,,,0.00,Meteo,2013-11-19 15:15:00,
2013-11-19 09:20:00,27.0,20.0,30.23,ESE,115,1.0,3.0,75,0.00,,,0.00,Meteo,2013-11-19 15:20:00,
2013-11-19 09:25:00,27.0,20.0,30.23,East,85,2.0,4.0,74,0.00,,,0.00,Meteo,2013-11-19 15:25:00,
2013-11-19 09:30:00,28.0,20.0,30.22,SE,137,0.0,2.0,73,0.00,,,0.00,Meteo,2013-11-19 15:30:00,
2013-11-19 09:36:00,29.0,21.0,30.22,East,85,5.0,9.0,71,0.00,,,0.00,Meteo,2013-11-19 15:36:00,
2013-11-19 09:41:00,29.0,20.0,30.22,SSE,159,2.0,6.0,70,0.00,,,0.00,Meteo,2013-11-19 15:41:00,
2013-11-19 09:46:00,29.0,20.0,30.22,ESE,113,1.0,3.0,68,0.00,,,0.00,Meteo,2013-11-19 15:46:00,
2013-11-19 09:51:00,30.0,21.0,30.22,ESE,122,1.0,3.0,68,0.00,,,0.00,Meteo,2013-11-19 15:51:00,
2013-11-19 09:56:00,30.0,20.0,30.22,SSE,150,3.0,6.0,66,0.00,,,0.00,Meteo,2013-11-19 15:56:00,
2013-11-19 10:01:00,31.0,21.0,30.22,East,92,2.0,4.0,65,0.00,,,0.00,Meteo,2013-11-19 16:01:00,
2013-11-19 10:06:00,31.0,21.0,30.22,ESE,103,2.0,5.0,65,0.00,,,0.00,Meteo,2013-11-19 16:06:00,
2013-11-19 10:11:00,31.0,20.0,30.22,SE,144,1.0,2.0,64,0.00,,,0.00,Meteo,2013-11-19 16:11:00,
2013-11-19 10:16:00,31.0,20.0,30.22,SE,132,3.0,7.0,63,0.00,,,0.00,Meteo,2013-11-19 16:16:00,
2013-11-19 10:21:00,32.0,21.0,30.22,East,93,1.0,4.0,63,0.00,,,0.00,Meteo,2013-11-19 16:21:00,
2013-11-19 10:26:00,32.0,20.0,30.21,ESE,113,3.0,7.0,62,0.00,,,0.00,Meteo,2013-11-19 16:26:00,
2013-11-19 10:31:00,32.0,20.0,30.21,SSE,167,3.0,6.0,62,0.00,,,0.00,Meteo,2013-11-19 16:31:00,
2013-11-19 10:36:00,33.0,21.0,30.20,SSE,159,4.0,7.0,61,0.00,,,0.00,Meteo,2013-11-19 16:36:00,
2013-11-19 10:41:00,33.0,21.0,30.20,North,0,0.0,0.0,60,0.00,,,0.00,Meteo,2013-11-19 16:41:00,
2013-11-19 10:46:00,33.0,21.0,30.21,SSE,165,1.0,4.0,60,0.00,,,0.00,Meteo,2013-11-19 16:46:00,
2013-11-19 10:51:00,34.0,21.0,30.20,South,187,2.0,4.0,59,0.00,,,0.00,Meteo,2013-11-19 16:51:00,
2013-11-19 10:56:00,34.0,21.0,30.19,South,180,1.0,3.0,58,0.00,,,0.00,Meteo,2013-11-19 16:56:00,
2013-11-19 11:01:00,35.0,21.0,30.19,East,84,2.0,4.0,57,0.00,,,0.00,Meteo,2013-11-19 17:01:00,
2013-11-19 11:06:00,35.0,21.0,30.19,South,169,1.0,3.0,56,0.00,,,0.00,Meteo,2013-11-19 17:06:00,
2013-11-19 11:11:00,35.0,20.0,30.19,SSE,164,2.0,5.0,55,0.00,,,0.00,Meteo,2013-11-19 17:11:00,
2013-11-19 11:16:00,36.0,21.0,30.18,SE,138,2.0,5.0,55,0.00,,,0.00,Meteo,2013-11-19 17:16:00,
2013-11-19 11:21:00,36.0,21.0,30.17,ESE,109,1.0,3.0,55,0.00,,,0.00,Meteo,2013-11-19 17:21:00,
2013-11-19 11:26:00,36.0,21.0,30.17,East,91,1.0,3.0,55,0.00,,,0.00,Meteo,2013-11-19 17:26:00,
2013-11-19 11:31:00,36.0,21.0,30.17,East,90,1.0,3.0,54,0.00,,,0.00,Meteo,2013-11-19 17:31:00,
2013-11-19 11:36:00,37.0,21.0,30.17,SSE,166,3.0,4.0,53,0.00,,,0.00,Meteo,2013-11-19 17:36:00,
2013-11-19 11:41:00,37.0,21.0,30.16,East,98,3.0,5.0,52,0.00,,,0.00,Meteo,2013-11-19 17:41:00,
2013-11-19 11:47:00,37.0,21.0,30.16,SE,128,1.0,5.0,52,0.00,,,0.00,Meteo,2013-11-19 17:47:00,
2013-11-19 11:52:00,37.0,21.0,30.16,SE,133,2.0,3.0,52,0.00,,,0.00,Meteo,2013-11-19 17:52:00,
2013-11-19 11:53:00,37.0,21.0,30.16,East,94,3.0,5.0,52,0.00,,,0.00,Meteo,2013-11-19 17:53:00,
2013-11-19 11:58:00,37.0,21.0,30.16,SE,135,2.0,5.0,53,0.00,,,0.00,Meteo,2013-11-19 17:58:00,
2013-11-19 12:03:00,37.0,21.0,30.15,East,79,3.0,7.0,52,0.00,,,0.00,Meteo,2013-11-19 18:03:00,
2013-11-19 12:08:00,38.0,22.0,30.15,SE,132,2.0,4.0,52,0.00,,,0.00,Meteo,2013-11-19 18:08:00,
2013-11-19 12:13:00,38.0,21.0,30.15,SE,138,2.0,5.0,51,0.00,,,0.00,Meteo,2013-11-19 18:13:00,
2013-11-19 12:18:00,38.0,21.0,30.14,SE,141,2.0,4.0,51,0.00,,,0.00,Meteo,2013-11-19 18:18:00,
2013-11-19 12:23:00,39.0,21.0,30.14,SSE,148,3.0,6.0,49,0.00,,,0.00,Meteo,2013-11-19 18:23:00,
2013-11-19 12:28:00,39.0,21.0,30.14,SE,135,2.0,5.0,49,0.00,,,0.00,Meteo,2013-11-19 18:28:00,
2013-11-19 12:33:00,39.0,21.0,30.14,ESE,108,1.0,3.0,48,0.00,,,0.00,Meteo,2013-11-19 18:33:00,
2013-11-19 12:38:00,40.0,22.0,30.13,SSE,148,2.0,5.0,48,0.00,,,0.00,Meteo,2013-11-19 18:38:00,
2013-11-19 12:43:00,40.0,22.0,30.13,SE,128,3.0,5.0,48,0.00,,,0.00,Meteo,2013-11-19 18:43:00,
2013-11-19 12:48:00,40.0,21.0,30.12,ENE,73,2.0,4.0,47,0.00,,,0.00,Meteo,2013-11-19 18:48:00,
2013-11-19 12:53:00,40.0,21.0,30.12,ESE,104,2.0,5.0,47,0.00,,,0.00,Meteo,2013-11-19 18:53:00,
2013-11-19 12:58:00,41.0,22.0,30.11,SE,133,1.0,3.0,46,0.00,,,0.00,Meteo,2013-11-19 18:58:00,
2013-11-19 13:03:00,41.0,21.0,30.11,ESE,116,1.0,1.0,45,0.00,,,0.00,Meteo,2013-11-19 19:03:00,
2013-11-19 13:08:00,41.0,21.0,30.11,SE,124,2.0,4.0,45,0.00,,,0.00,Meteo,2013-11-19 19:08:00,
2013-11-19 13:14:00,41.0,21.0,30.10,East,98,1.0,3.0,45,0.00,,,0.00,Meteo,2013-11-19 19:14:00,
2013-11-19 13:19:00,41.0,21.0,30.10,SSE,158,3.0,4.0,44,0.00,,,0.00,Meteo,2013-11-19 19:19:00,
2013-11-19 13:24:00,41.0,21.0,30.09,SE,125,0.0,1.0,44,0.00,,,0.00,Meteo,2013-11-19 19:24:00,
2013-11-19 13:29:00,41.0,21.0,30.09,SE,145,3.0,8.0,45,0.00,,,0.00,Meteo,2013-11-19 19:29:00,
2013-11-19 13:34:00,41.0,21.0,30.09,ESE,112,0.0,1.0,44,0.00,,,0.00,Meteo,2013-11-19 19:34:00,
2013-11-19 13:39:00,41.0,21.0,30.09,SSW,193,2.0,3.0,44,0.00,,,0.00,Meteo,2013-11-19 19:39:00,
2013-11-19 13:44:00,41.0,21.0,30.09,SSE,160,1.0,2.0,44,0.00,,,0.00,Meteo,2013-11-19 19:44:00,
2013-11-19 13:48:00,41.0,21.0,30.09,East,86,1.0,3.0,44,0.00,,,0.00,Meteo,2013-11-19 19:48:00,
2013-11-19 13:53:00,41.0,21.0,30.08,ESE,108,2.0,5.0,45,0.00,,,0.00,Meteo,2013-11-19 19:53:00,
2013-11-19 13:58:00,41.0,21.0,30.07,SE,125,1.0,3.0,45,0.00,,,0.00,Meteo,2013-11-19 19:58:00,
2013-11-19 14:03:00,41.0,21.0,30.07,SE,127,0.0,1.0,45,0.00,,,0.00,Meteo,2013-11-19 20:03:00,
2013-11-19 14:08:00,42.0,22.0,30.07,ENE,65,0.0,1.0,45,0.00,,,0.00,Meteo,2013-11-19 20:08:00,
2013-11-19 14:13:00,42.0,22.0,30.07,SE,132,2.0,4.0,44,0.00,,,0.00,Meteo,2013-11-19 20:13:00,
2013-11-19 14:18:00,43.0,22.0,30.06,East,95,2.0,4.0,43,0.00,,,0.00,Meteo,2013-11-19 20:18:00,
2013-11-19 14:23:00,43.0,21.0,30.06,East,87,3.0,7.0,41,0.00,,,0.00,Meteo,2013-11-19 20:23:00,
2013-11-19 14:28:00,44.0,22.0,30.06,South,181,1.0,3.0,41,0.00,,,0.00,Meteo,2013-11-19 20:28:00,
2013-11-19 14:33:00,44.0,21.0,30.06,SSE,152,1.0,4.0,40,0.00,,,0.00,Meteo,2013-11-19 20:33:00,
2013-11-19 14:38:00,44.0,21.0,30.06,SE,137,1.0,4.0,39,0.00,,,0.00,Meteo,2013-11-19 20:38:00,
2013-11-19 14:43:00,44.0,20.0,30.06,SSE,168,1.0,3.0,38,0.00,,,0.00,Meteo,2013-11-19 20:43:00,
2013-11-19 14:48:00,44.0,20.0,30.05,ESE,111,1.0,3.0,38,0.00,,,0.00,Meteo,2013-11-19 20:48:00,
2013-11-19 14:53:00,44.0,20.0,30.05,SSE,151,3.0,6.0,38,0.00,,,0.00,Meteo,2013-11-19 20:53:00,
2013-11-19 14:58:00,44.0,20.0,30.05,SSE,155,0.0,1.0,38,0.00,,,0.00,Meteo,2013-11-19 20:58:00,
2013-11-19 15:03:00,44.0,19.0,30.04,SSE,152,2.0,4.0,37,0.00,,,0.00,Meteo,2013-11-19 21:03:00,
2013-11-19 15:08:00,44.0,20.0,30.04,ESE,116,2.0,4.0,38,0.00,,,0.00,Meteo,2013-11-19 21:08:00,
2013-11-19 15:13:00,44.0,20.0,30.04,SSE,152,3.0,6.0,38,0.00,,,0.00,Meteo,2013-11-19 21:13:00,
2013-11-19 15:18:00,43.0,19.0,30.04,SSE,158,3.0,6.0,38,0.00,,,0.00,Meteo,2013-11-19 21:18:00,
2013-11-19 15:23:00,43.0,20.0,30.04,SSE,153,4.0,7.0,39,0.00,,,0.00,Meteo,2013-11-19 21:23:00,
2013-11-19 15:28:00,43.0,19.0,30.03,SSE,156,3.0,7.0,38,0.00,,,0.00,Meteo,2013-11-19 21:28:00,
2013-11-19 15:33:00,43.0,20.0,30.03,East,92,3.0,5.0,39,0.00,,,0.00,Meteo,2013-11-19 21:33:00,
2013-11-19 15:38:00,42.0,19.0,30.03,SSE,152,2.0,7.0,40,0.00,,,0.00,Meteo,2013-11-19 21:38:00,
2013-11-19 15:43:00,42.0,20.0,30.02,ESE,114,1.0,2.0,41,0.00,,,0.00,Meteo,2013-11-19 21:43:00,
2013-11-19 15:48:00,42.0,20.0,30.02,SSE,151,1.0,3.0,41,0.00,,,0.00,Meteo,2013-11-19 21:48:00,
2013-11-19 15:53:00,41.0,19.0,30.02,SSE,147,1.0,3.0,41,0.00,,,0.00,Meteo,2013-11-19 21:53:00,
2013-11-19 15:58:00,41.0,20.0,30.02,SSE,161,4.0,6.0,42,0.00,,,0.00,Meteo,2013-11-19 21:58:00,
2013-11-19 16:03:00,41.0,19.0,30.01,SE,141,2.0,5.0,41,0.00,,,0.00,Meteo,2013-11-19 22:03:00,
2013-11-19 16:08:00,41.0,19.0,30.01,SSE,160,3.0,9.0,41,0.00,,,0.00,Meteo,2013-11-19 22:08:00,
2013-11-19 16:13:00,40.0,19.0,30.01,SSE,163,2.0,3.0,42,0.00,,,0.00,Meteo,2013-11-19 22:13:00,
2013-11-19 16:18:00,40.0,18.0,30.01,South,169,4.0,8.0,41,0.00,,,0.00,Meteo,2013-11-19 22:18:00,
2013-11-19 16:23:00,40.0,18.0,30.01,SSE,151,2.0,6.0,41,0.00,,,0.00,Meteo,2013-11-19 22:23:00,
2013-11-19 16:28:00,40.0,18.0,30.00,SSE,157,3.0,5.0,41,0.00,,,0.00,Meteo,2013-11-19 22:28:00,
2013-11-19 16:33:00,40.0,19.0,30.00,SSE,150,2.0,3.0,42,0.00,,,0.00,Meteo,2013-11-19 22:33:00,
2013-11-19 16:38:00,39.0,18.0,30.00,South,170,3.0,6.0,42,0.00,,,0.00,Meteo,2013-11-19 22:38:00,
2013-11-19 16:43:00,39.0,18.0,30.00,SE,145,2.0,3.0,43,0.00,,,0.00,Meteo,2013-11-19 22:43:00,
2013-11-19 16:48:00,39.0,18.0,30.00,SE,145,2.0,3.0,43,0.00,,,0.00,Meteo,2013-11-19 22:48:00,
2013-11-19 16:53:00,39.0,18.0,30.00,SSE,153,4.0,7.0,43,0.00,,,0.00,Meteo,2013-11-19 22:53:00,
2013-11-19 16:58:00,38.0,18.0,30.00,South,169,1.0,3.0,44,0.00,,,0.00,Meteo,2013-11-19 22:58:00,
2013-11-19 17:03:00,38.0,18.0,30.00,SSE,155,3.0,9.0,44,0.00,,,0.00,Meteo,2013-11-19 23:03:00,
2013-11-19 17:08:00,38.0,18.0,29.99,SE,145,1.0,3.0,44,0.00,,,0.00,Meteo,2013-11-19 23:08:00,
2013-11-19 17:13:00,38.0,18.0,29.99,SSE,165,2.0,5.0,44,0.00,,,0.00,Meteo,2013-11-19 23:13:00,
2013-11-19 17:18:00,38.0,19.0,29.99,SSE,153,2.0,3.0,45,0.00,,,0.00,Meteo,2013-11-19 23:18:00,
2013-11-19 17:23:00,38.0,18.0,29.99,SSE,156,2.0,5.0,44,0.00,,,0.00,Meteo,2013-11-19 23:23:00,
2013-11-19 17:28:00,38.0,19.0,29.99,SSE,154,3.0,7.0,45,0.00,,,0.00,Meteo,2013-11-19 23:28:00,
2013-11-19 17:33:00,38.0,19.0,29.99,SSE,149,3.0,6.0,45,0.00,,,0.00,Meteo,2013-11-19 23:33:00,
2013-11-19 17:38:00,38.0,19.0,29.99,SSE,156,4.0,7.0,45,0.00,,,0.00,Meteo,2013-11-19 23:38:00,
2013-11-19 17:43:00,38.0,19.0,29.99,SSE,163,2.0,4.0,45,0.00,,,0.00,Meteo,2013-11-19 23:43:00,
2013-11-19 17:48:00,38.0,19.0,29.98,SSW,196,1.0,3.0,45,0.00,,,0.00,Meteo,2013-11-19 23:48:00,
2013-11-19 17:53:00,38.0,19.0,29.98,SSE,148,4.0,7.0,45,0.00,,,0.00,Meteo,2013-11-19 23:53:00,
2013-11-19 17:58:00,38.0,19.0,29.98,SSE,158,1.0,3.0,45,0.00,,,0.00,Meteo,2013-11-19 23:58:00,
2013-11-19 18:03:00,38.0,19.0,29.98,SSE,162,3.0,6.0,45,0.00,,,0.00,Meteo,2013-11-20 00:03:00,
2013-11-19 18:08:00,38.0,19.0,29.97,South,171,4.0,5.0,45,0.00,,,0.00,Meteo,2013-11-20 00:08:00,
2013-11-19 18:13:00,38.0,19.0,29.97,SSE,165,4.0,7.0,45,0.00,,,0.00,Meteo,2013-11-20 00:13:00,
2013-11-19 18:18:00,39.0,19.0,29.97,SSE,153,4.0,7.0,45,0.00,,,0.00,Meteo,2013-11-20 00:18:00,
2013-11-19 18:23:00,39.0,19.0,29.97,South,169,2.0,3.0,44,0.00,,,0.00,Meteo,2013-11-20 00:23:00,
2013-11-19 18:28:00,39.0,19.0,29.96,South,170,2.0,3.0,44,0.00,,,0.00,Meteo,2013-11-20 00:28:00,
2013-11-19 18:33:00,39.0,19.0,29.96,South,180,4.0,6.0,44,0.00,,,0.00,Meteo,2013-11-20 00:33:00,
2013-11-19 18:38:00,39.0,19.0,29.96,SSE,149,3.0,8.0,45,0.00,,,0.00,Meteo,2013-11-20 00:38:00,
2013-11-19 18:43:00,39.0,19.0,29.96,SSE,163,6.0,12.0,45,0.00,,,0.00,Meteo,2013-11-20 00:43:00,
2013-11-19 18:48:00,39.0,19.0,29.96,South,172,5.0,12.0,45,0.00,,,0.00,Meteo,2013-11-20 00:48:00,
2013-11-19 18:53:00,39.0,19.0,29.95,South,171,4.0,6.0,45,0.00,,,0.00,Meteo,2013-11-20 00:53:00,
2013-11-19 18:58:00,39.0,19.0,29.95,South,181,5.0,9.0,45,0.00,,,0.00,Meteo,2013-11-20 00:58:00,
2013-11-19 19:03:00,39.0,19.0,29.95,SSE,162,3.0,6.0,45,0.00,,,0.00,Meteo,2013-11-20 01:03:00,
2013-11-19 19:08:00,39.0,19.0,29.94,SSE,165,4.0,6.0,45,0.00,,,0.00,Meteo,2013-11-20 01:08:00,
2013-11-19 19:13:00,39.0,19.0,29.94,South,170,4.0,10.0,45,0.00,,,0.00,Meteo,2013-11-20 01:13:00,
2013-11-19 19:18:00,39.0,19.0,29.94,SSE,162,4.0,7.0,45,0.00,,,0.00,Meteo,2013-11-20 01:18:00,
2013-11-19 19:23:00,39.0,19.0,29.94,South,175,4.0,7.0,45,0.00,,,0.00,Meteo,2013-11-20 01:23:00,
2013-11-19 19:28:00,39.0,19.0,29.94,South,185,3.0,8.0,45,0.00,,,0.00,Meteo,2013-11-20 01:28:00,
2013-11-19 19:33:00,39.0,19.0,29.94,SSE,166,5.0,7.0,45,0.00,,,0.00,Meteo,2013-11-20 01:33:00,
2013-11-19 19:38:00,39.0,19.0,29.94,South,185,7.0,11.0,45,0.00,,,0.00,Meteo,2013-11-20 01:38:00,
2013-11-19 19:43:00,40.0,20.0,29.94,South,188,4.0,8.0,45,0.00,,,0.00,Meteo,2013-11-20 01:43:00,
2013-11-19 19:49:00,40.0,20.0,29.94,South,180,4.0,8.0,44,0.00,,,0.00,Meteo,2013-11-20 01:49:00,
2013-11-19 19:54:00,40.0,20.0,29.93,South,185,4.0,9.0,44,0.00,,,0.00,Meteo,2013-11-20 01:54:00,
2013-11-19 19:59:00,40.0,20.0,29.93,South,188,7.0,9.0,44,0.00,,,0.00,Meteo,2013-11-20 01:59:00,
2013-11-19 20:04:00,40.0,20.0,29.94,South,177,4.0,6.0,45,0.00,,,0.00,Meteo,2013-11-20 02:04:00,
2013-11-19 20:09:00,40.0,20.0,29.93,SSE,162,6.0,18.0,44,0.00,,,0.00,Meteo,2013-11-20 02:09:00,
2013-11-19 20:15:00,39.0,19.0,29.93,SSW,194,5.0,8.0,45,0.00,,,0.00,Meteo,2013-11-20 02:15:00,
2013-11-19 20:20:00,39.0,19.0,29.94,South,183,4.0,6.0,45,0.00,,,0.00,Meteo,2013-11-20 02:20:00,
2013-11-19 20:25:00,39.0,19.0,29.93,South,172,4.0,5.0,45,0.00,,,0.00,Meteo,2013-11-20 02:25:00,
2013-11-19 20:30:00,39.0,19.0,29.93,South,181,5.0,8.0,45,0.00,,,0.00,Meteo,2013-11-20 02:30:00,
2013-11-19 20:35:00,39.0,20.0,29.93,SSE,164,4.0,5.0,46,0.00,,,0.00,Meteo,2013-11-20 02:35:00,
2013-11-19 20:40:00,39.0,20.0,29.93,South,169,3.0,9.0,46,0.00,,,0.00,Meteo,2013-11-20 02:40:00,
2013-11-19 20:45:00,39.0,20.0,29.93,South,190,3.0,6.0,46,0.00,,,0.00,Meteo,2013-11-20 02:45:00,
2013-11-19 20:50:00,39.0,20.0,29.93,South,174,2.0,4.0,46,0.00,,,0.00,Meteo,2013-11-20 02:50:00,
2013-11-19 20:55:00,39.0,20.0,29.94,South,180,3.0,5.0,47,0.00,,,0.00,Meteo,2013-11-20 02:55:00,
2013-11-19 21:00:00,39.0,20.0,29.93,South,179,2.0,4.0,47,0.00,,,0.00,Meteo,2013-11-20 03:00:00,
2013-11-19 21:05:00,39.0,20.0,29.93,South,183,3.0,5.0,47,0.00,,,0.00,Meteo,2013-11-20 03:05:00,
2013-11-19 21:10:00,39.0,20.0,29.94,South,173,3.0,5.0,47,0.00,,,0.00,Meteo,2013-11-20 03:10:00,
2013-11-19 21:15:00,39.0,20.0,29.94,SSW,210,2.0,4.0,47,0.00,,,0.00,Meteo,2013-11-20 03:15:00,
2013-11-19 21:20:00,39.0,21.0,29.94,South,188,3.0,7.0,48,0.00,,,0.00,Meteo,2013-11-20 03:20:00,
2013-11-19 21:25:00,39.0,21.0,29.94,South,178,4.0,7.0,48,0.00,,,0.00,Meteo,2013-11-20 03:25:00,
2013-11-19 21:30:00,39.0,21.0,29.94,SSW,196,4.0,6.0,48,0.00,,,0.00,Meteo,2013-11-20 03:30:00,
2013-11-19 21:35:00,39.0,20.0,29.94,South,182,4.0,7.0,47,0.00,,,0.00,Meteo,2013-11-20 03:35:00,
2013-11-19 21:40:00,40.0,21.0,29.94,South,183,4.0,6.0,47,0.00,,,0.00,Meteo,2013-11-20 03:40:00,
2013-11-19 21:45:00,40.0,21.0,29.94,South,186,5.0,7.0,47,0.00,,,0.00,Meteo,2013-11-20 03:45:00,
2013-11-19 21:50:00,40.0,21.0,29.94,South,184,3.0,6.0,47,0.00,,,0.00,Meteo,2013-11-20 03:50:00,
2013-11-19 21:55:00,40.0,21.0,29.94,South,181,5.0,7.0,47,0.00,,,0.00,Meteo,2013-11-20 03:55:00,
2013-11-19 22:00:00,40.0,21.0,29.94,South,184,3.0,5.0,46,0.00,,,0.00,Meteo,2013-11-20 04:00:00,
2013-11-19 22:05:00,40.0,21.0,29.94,South,177,4.0,9.0,46,0.00,,,0.00,Meteo,2013-11-20 04:05:00,
2013-11-19 22:10:00,40.0,21.0,29.94,South,191,5.0,7.0,46,0.00,,,0.00,Meteo,2013-11-20 04:10:00,
2013-11-19 22:15:00,40.0,21.0,29.93,South,186,6.0,8.0,46,0.00,,,0.00,Meteo,2013-11-20 04:15:00,
2013-11-19 22:20:00,40.0,21.0,29.93,South,185,4.0,7.0,46,0.00,,,0.00,Meteo,2013-11-20 04:20:00,
2013-11-19 22:25:00,40.0,21.0,29.93,South,173,2.0,5.0,46,0.00,,,0.00,Meteo,2013-11-20 04:25:00,
2013-11-19 22:30:00,40.0,21.0,29.93,SSW,192,6.0,9.0,46,0.00,,,0.00,Meteo,2013-11-20 04:30:00,
2013-11-19 22:35:00,40.0,21.0,29.93,South,179,6.0,7.0,46,0.00,,,0.00,Meteo,2013-11-20 04:35:00,
2013-11-19 22:40:00,40.0,21.0,29.93,South,183,6.0,9.0,46,0.00,,,0.00,Meteo,2013-11-20 04:40:00,
2013-11-19 22:45:00,40.0,21.0,29.93,South,179,5.0,8.0,46,0.00,,,0.00,Meteo,2013-11-20 04:45:00,
2013-11-19 22:50:00,40.0,21.0,29.93,South,187,4.0,7.0,46,0.00,,,0.00,Meteo,2013-11-20 04:50:00,
2013-11-19 22:55:00,40.0,21.0,29.93,South,178,4.0,6.0,46,0.00,,,0.00,Meteo,2013-11-20 04:55:00,
2013-11-19 23:01:00,40.0,21.0,29.93,South,178,2.0,5.0,46,0.00,,,0.00,Meteo,2013-11-20 05:01:00,
2013-11-19 23:02:00,40.0,21.0,29.93,South,186,4.0,9.0,47,0.00,,,0.00,Meteo,2013-11-20 05:02:00,
2013-11-19 23:03:00,40.0,21.0,29.93,South,176,3.0,5.0,47,0.00,,,0.00,Meteo,2013-11-20 05:03:00,
2013-11-19 23:04:00,40.0,21.0,29.93,South,190,5.0,9.0,46,0.00,,,0.00,Meteo,2013-11-20 05:04:00,
2013-11-19 23:08:00,40.0,21.0,29.93,South,190,4.0,6.0,47,0.00,,,0.00,Meteo,2013-11-20 05:08:00,
2013-11-19 23:09:00,40.0,21.0,29.93,South,173,4.0,9.0,46,0.00,,,0.00,Meteo,2013-11-20 05:09:00,
2013-11-19 23:14:00,40.0,21.0,29.93,South,178,4.0,6.0,47,0.00,,,0.00,Meteo,2013-11-20 05:14:00,
2013-11-19 23:19:00,40.0,21.0,29.92,South,187,5.0,8.0,47,0.00,,,0.00,Meteo,2013-11-20 05:19:00,
2013-11-19 23:24:00,40.0,21.0,29.92,South,173,6.0,8.0,47,0.00,,,0.00,Meteo,2013-11-20 05:24:00,
2013-11-19 23:29:00,40.0,21.0,29.92,South,183,6.0,11.0,47,0.00,,,0.00,Meteo,2013-11-20 05:29:00,
2013-11-19 23:34:00,40.0,21.0,29.92,South,178,5.0,7.0,46,0.00,,,0.00,Meteo,2013-11-20 05:34:00,
2013-11-19 23:39:00,41.0,22.0,29.92,South,186,4.0,6.0,46,0.00,,,0.00,Meteo,2013-11-20 05:39:00,
2013-11-19 23:44:00,41.0,22.0,29.92,South,174,3.0,5.0,46,0.00,,,0.00,Meteo,2013-11-20 05:44:00,
2013-11-19 23:49:00,41.0,21.0,29.92,South,188,2.0,4.0,45,0.00,,,0.00,Meteo,2013-11-20 05:49:00,
2013-11-19 23:54:00,41.0,21.0,29.92,SSW,196,3.0,5.0,45,0.00,,,0.00,Meteo,2013-11-20 05:54:00,
2013-11-19 23:59:00,41.0,21.0,29.92,SSE,167,2.0,3.0,45,0.00,,,0.00,Meteo,2013-11-20 05:59:00,